Change the Weather History Date:

Tuesday, May 14, 2013

  Actual Average Record
Temperature  
Mean Temperature 74 °F 63 °F  
Max Temperature 92 °F 76 °F 92 °F (2013)
Min Temperature 55 °F 51 °F 37 °F (2000)
Degree Days  
Heating Degree Days 0 4  
Month to date heating degree days 142 79  
Since 1 July heating degree days 5160 5260  
Cooling Degree Days 9 2  
Month to date cooling degree days 11 20  
Year to date cooling degree days 28 37  
Growing Degree Days 23 (Base 50)    
Moisture  
Dew Point 53 °F    
Average Humidity 61    
Maximum Humidity 93    
Minimum Humidity 28    
Precipitation  
Precipitation 0.00 in 0.12 in 0.06 in (1999)
Month to date precipitation 2.07 1.82  
Year to date precipitation 8.12 8.54  
Sea Level Pressure  
Sea Level Pressure 29.80 in    
Wind  
Wind Speed 13 mph (SW)    
Max Wind Speed 29 mph    
Max Gust Speed 37 mph    
Visibility 10 miles    
Events      
T = Trace of Precipitation, MM = Missing Value Source: NWS Daily Summary

Daily Weather History Graph

Daily Weather History Graph

Search for Another Location

Airport or City:

Trip Planner

Search our weather history database for the weather conditions in past years. The results will help you decide how hot, cold, wet, or windy it might be!

Date:

Astronomy

May. 14, 2013 Rise Set
Actual Time 6:14 AM CDT 8:32 PM CDT
Civil Twilight 5:44 AM CDT 9:02 PM CDT
Nautical Twilight 5:07 AM CDT 9:39 PM CDT
Astronomical Twilight 4:26 AM CDT 10:20 PM CDT
Moon 9:54 AM CDT (5/14) No Moon Set
Length of Visible Light 15h 18m
Length of Day
14h 18m
Waxing Crescent, 19% of the Moon is Illuminated
May 14
Waxing Crescent
May 17
First Quarter
May 24
Full
May 31
Last Quarter
Jun 8
New

Hourly Weather History & Observations

Time (CDT) Temp. Heat Index Dew Point Humidity Pressure Visibility Wind Dir Wind Speed Gust Speed Precip Events Conditions
12:52 AM 64.0 °F - 57.0 °F 78% 29.88 in 10.0 mi Calm Calm - N/A   Clear
1:52 AM 57.9 °F - 55.0 °F 90% 29.86 in 10.0 mi Calm Calm - N/A   Clear
2:52 AM 66.0 °F - 55.9 °F 70% 29.84 in 10.0 mi SW 6.9 mph - N/A   Clear
3:52 AM 64.9 °F - 54.0 °F 68% 29.83 in 10.0 mi SW 5.8 mph - N/A   Clear
4:52 AM 64.0 °F - 53.1 °F 67% 29.83 in 10.0 mi Calm Calm - N/A   Clear
5:52 AM 62.1 °F - 52.0 °F 70% 29.83 in 10.0 mi Calm Calm - N/A   Clear
6:52 AM 55.9 °F - 52.0 °F 87% 29.85 in 10.0 mi WSW 3.5 mph - N/A   Clear
7:52 AM 64.9 °F - 53.1 °F 65% 29.84 in 10.0 mi SW 5.8 mph - N/A   Clear
8:52 AM 72.0 °F - 50.0 °F 46% 29.85 in 10.0 mi SW 12.7 mph - N/A   Clear
9:52 AM 77.0 °F - 48.9 °F 37% 29.84 in 10.0 mi SW 13.8 mph 21.9 mph N/A   Clear
10:52 AM 81.0 °F - 48.9 °F 33% 29.83 in 10.0 mi SW 13.8 mph 20.7 mph N/A   Clear
11:52 AM 84.0 °F - 51.1 °F 32% 29.83 in 10.0 mi SW 12.7 mph 20.7 mph N/A   Clear
12:52 PM 87.1 °F - 52.0 °F 30% 29.81 in 10.0 mi SW 17.3 mph 26.5 mph N/A   Clear
1:52 PM 90.0 °F 87.9 °F 55.0 °F 30% 29.79 in 10.0 mi SW 17.3 mph 27.6 mph N/A   Clear
2:52 PM 91.9 °F 90.3 °F 55.9 °F 30% 29.77 in 10.0 mi SSW 20.7 mph 29.9 mph N/A   Clear
3:52 PM 91.9 °F 89.5 °F 54.0 °F 27% 29.75 in 10.0 mi SW 27.6 mph 35.7 mph N/A   Clear
4:52 PM 91.0 °F 89.7 °F 57.0 °F 32% 29.75 in 10.0 mi SSW 25.3 mph 33.4 mph N/A   Clear
5:52 PM 89.1 °F 86.9 °F 54.0 °F 30% 29.74 in 10.0 mi SSW 20.7 mph 31.1 mph N/A   Clear
6:52 PM 87.1 °F - 52.0 °F 30% 29.74 in 10.0 mi SSW 23.0 mph 34.5 mph N/A   Clear
7:52 PM 84.0 °F - 51.1 °F 32% 29.74 in 10.0 mi SSW 15.0 mph 23.0 mph N/A   Clear
8:52 PM 80.1 °F - 50.0 °F 35% 29.75 in 10.0 mi SSW 16.1 mph 21.9 mph N/A   Clear
9:52 PM 77.0 °F - 51.1 °F 40% 29.78 in 10.0 mi SSW 11.5 mph - N/A   Clear
10:52 PM 77.0 °F - 54.0 °F 45% 29.77 in 10.0 mi SSW 13.8 mph 21.9 mph N/A   Clear
11:52 PM 75.9 °F - 54.0 °F 46% 29.78 in 10.0 mi SW 12.7 mph 20.7 mph N/A   Clear